Location: Bacea
(45.9500°N, 22.6667°E)
Time: 16:48:47
(UTC+00:00)

Cosmos 489 Rocket - Pass Details

Date: 23 May 2022
Orbit: 952 x 983 km, 74.0° (Epoch: 29 June)

Event Time Altitude Azimuth Distance (km) Brightness Sun altitude
Rises 00:34:37 0° 347° (NNW) 3,641 8.2 -17.4°
Reaches altitude 10° 00:38:48 10° 14° (NNE) 2,695 7.9 -17.0°
Maximum altitude 00:41:39 13° 41° (NE) 2,461 7.8 -16.8°
Drops below altitude 10° 00:44:31 10° 69° (ENE) 2,697 7.6 -16.5°
Sets 00:48:41 0° 96° (E) 3,645 7.9 -16.1°
